Weather History for Kotzebue, AK

Change the Weather History Date:

Saturday, May 18, 2013

  Actual Average Record
Temperature  
Mean Temperature 11 °F 33 °F  
Max Temperature 20 °F 39 °F 61 °F (1969)
Min Temperature 2 °F 28 °F 2 °F (2013)
Degree Days  
Heating Degree Days 54 32  
Month to date heating degree days 831 650  
Since 1 July heating degree days 14734 14430  
Cooling Degree Days 0    
Month to date cooling degree days 0  
Year to date cooling degree days 0  
Moisture  
Dew Point 14 °F    
Average Humidity 0    
Maximum Humidity 0    
Minimum Humidity 0    
Precipitation  
Precipitation 0.01 in 0.01 in 0.25 in (1963)
Month to date precipitation 0.33 0.26  
Year to date precipitation 3.07 2.52  
Snow  
Snow 0.00 in 0.00 in 2.40 in (1964)
Month to date snowfall 1.0  
Since 1 July snowfall 59.6  
Snow Depth 5.00 in    
Sea Level Pressure  
Sea Level Pressure 29.95 in    
Wind  
Wind Speed 12 mph (South)    
Max Wind Speed 29 mph    
Max Gust Speed 33 mph    
Visibility 3 miles    
Events Snow    
T = Trace of Precipitation, MM = Missing Value Source: NWS Daily Summary

Daily Weather History Graph

Daily Weather History Graph

Search for Another Location

Airport:

Trip Planner

Search our weather history database for the weather conditions in past years. The results will help you decide how hot, cold, wet, or windy it might be!

Date:

Astronomy

May. 18, 2013 Rise Set
Actual Time 4:42 AM AKDT 12:55 AM AKDT
Civil Twilight Sun does not rise Sun does not rise
Nautical Twilight Sun does not rise Sun does not rise
Astronomical Twilight Sun does not rise Sun does not rise
Moon 2:50 PM AKDT (5/18) 4:09 AM AKDT (5/18)
Length of Visible Light 24h 00m
Length of Day
20h 13m
First Quarter, 56% of the Moon is Illuminated
May 18
First Quarter
May 24
Full
May 31
Last Quarter
Jun 8
New
Jun 16
First Quarter

Hourly Weather History & Observations

Time (AKDT) Temp. Windchill Dew Point Humidity Pressure Visibility Wind Dir Wind Speed Gust Speed Precip Events Conditions
12:00 AM 10.4 °F -0.4 °F 6.8 °F 85% 29.87 in 10.0 mi SW 6.9 mph - N/A   Overcast
12:11 AM 10.4 °F -1.5 °F 6.8 °F 85% 29.87 in 6.0 mi SW 8.1 mph - N/A   Overcast
12:53 AM 12.0 °F 1.5 °F 8.1 °F 84% 29.88 in 4.0 mi SW 6.9 mph - 0.00 in   Overcast
1:33 AM 12.2 °F 0.7 °F 8.6 °F 85% 29.89 in 1.8 mi WSW 8.1 mph - 0.00 in Snow Light Snow
1:40 AM 10.4 °F 0.8 °F 8.6 °F 92% 29.89 in 0.8 mi WSW 5.8 mph - 0.00 in Snow Light Snow
1:53 AM 10.9 °F 2.9 °F 8.1 °F 88% 29.89 in 1.2 mi West 4.6 mph - 0.00 in Snow Light Snow
2:05 AM 12.2 °F 4.3 °F 8.6 °F 85% 29.89 in 3.0 mi West 4.6 mph - 0.00 in Snow Light Snow
2:23 AM 12.2 °F 2.9 °F 8.6 °F 85% 29.90 in 8.0 mi West 5.8 mph - 0.00 in Snow Light Snow
2:53 AM 10.0 °F 0.4 °F 7.0 °F 87% 29.90 in 10.0 mi West 5.8 mph - 0.00 in   Overcast
3:53 AM 3.0 °F -8.0 °F -0.0 °F 87% 29.92 in 10.0 mi WSW 5.8 mph - N/A   Mostly Cloudy
4:53 AM 3.9 °F -3.4 °F 1.0 °F 88% 29.93 in 10.0 mi SSW 3.5 mph - 0.00 in   Overcast
5:53 AM 6.1 °F -2.8 °F 3.0 °F 87% 29.94 in 8.0 mi South 4.6 mph - N/A   Overcast
6:28 AM 5.0 °F -2.1 °F 1.4 °F 85% 29.94 in 2.5 mi SE 3.5 mph - 0.00 in Snow Light Snow
6:39 AM 5.0 °F -4.1 °F 1.4 °F 85% 29.94 in 4.0 mi SSE 4.6 mph - 0.00 in Snow Light Snow
6:53 AM 5.0 °F -2.1 °F 1.9 °F 87% 29.95 in 1.8 mi SSE 3.5 mph - 0.00 in Snow Light Snow
7:06 AM 3.2 °F -6.2 °F 1.4 °F 92% 29.95 in 2.5 mi South 4.6 mph - 0.00 in Snow Light Snow
7:10 AM 6.8 °F -4.8 °F 3.2 °F 85% 29.95 in 3.0 mi South 6.9 mph - 0.00 in Snow Light Snow
7:51 AM 5.0 °F -9.1 °F 1.4 °F 85% 29.95 in 7.0 mi SSE 9.2 mph - 0.00 in   Overcast
7:53 AM 3.9 °F -10.4 °F 1.0 °F 88% 29.95 in 6.0 mi SE 9.2 mph - 0.00 in Snow Light Snow
8:53 AM 5.0 °F -12.3 °F 1.0 °F 84% 29.96 in 10.0 mi SSE 13.8 mph - 0.00 in   Overcast
9:53 AM 8.1 °F -10.2 °F 1.9 °F 76% 29.96 in 10.0 mi SE 17.3 mph - N/A   Mostly Cloudy
10:53 AM 9.0 °F -11.4 °F 3.9 °F 80% 29.96 in 7.0 mi SE 23.0 mph - N/A   Mostly Cloudy
11:53 AM 12.0 °F -7.7 °F 7.0 °F 80% 29.96 in 3.0 mi SSE 24.2 mph - N/A Snow Blowing Snow
11:58 AM 12.2 °F -7.9 °F 8.6 °F 85% 29.96 in 1.5 mi SSE 25.3 mph - 0.00 in Snow Light Snow
12:53 PM 15.1 °F -4.0 °F 10.9 °F 84% 29.96 in 1.0 mi SSE 25.3 mph - 0.00 in Snow Light Snow
1:53 PM 19.0 °F 1.3 °F 15.1 °F 85% 29.96 in 1.0 mi SSE 25.3 mph - 0.00 in Snow Light Snow
2:53 PM 21.0 °F 3.9 °F 18.0 °F 88% 29.95 in 1.0 mi SSE 25.3 mph - 0.02 in Snow Light Snow
3:53 PM 23.0 °F 7.2 °F 21.0 °F 92% 29.96 in 1.0 mi South 23.0 mph - 0.01 in Snow Light Snow
4:30 PM 24.8 °F 9.3 °F 23.0 °F 93% 29.95 in 0.8 mi South 24.2 mph - 0.01 in Snow Light Snow
4:38 PM 24.8 °F 9.6 °F 23.0 °F 93% 29.95 in 0.5 mi South 23.0 mph - 0.01 in Snow Snow
4:53 PM 24.1 °F 7.7 °F 23.0 °F 96% 29.96 in 0.5 mi South 26.5 mph - 0.01 in Snow Snow
5:20 PM 24.8 °F 8.4 °F 23.0 °F 93% 29.95 in 0.8 mi SSE 27.6 mph - 0.02 in Snow Light Snow
5:34 PM 24.8 °F 8.4 °F 23.0 °F 93% 29.95 in 0.8 mi SSE 27.6 mph - 0.02 in Snow Light Snow
5:42 PM 24.8 °F 8.7 °F 23.0 °F 93% 29.95 in 0.8 mi South 26.5 mph - 0.02 in Snow Light Snow
5:53 PM 25.0 °F 8.9 °F 24.1 °F 96% 29.95 in 1.0 mi South 26.5 mph 33.4 mph 0.03 in Snow Light Snow
6:09 PM 24.8 °F 8.7 °F 24.8 °F 100% 29.95 in 0.8 mi South 26.5 mph 36.8 mph 0.01 in Snow Light Snow
6:28 PM 26.6 °F 11.4 °F 26.6 °F 100% 29.95 in 0.5 mi South 25.3 mph 33.4 mph 0.01 in Snow Light Snow
6:36 PM 26.6 °F 11.7 °F 24.8 °F 93% 29.95 in 0.5 mi South 24.2 mph 34.5 mph 0.01 in Snow Light Snow
6:53 PM 26.1 °F 10.7 °F 26.1 °F 100% 29.96 in 0.5 mi South 25.3 mph 33.4 mph 0.01 in Snow Light Snow
7:53 PM 26.1 °F 11.0 °F 26.1 °F 100% 29.96 in 0.5 mi South 24.2 mph 32.2 mph 0.01 in Snow Light Snow
8:53 PM 27.0 °F 13.2 °F 26.1 °F 96% 29.98 in 0.5 mi South 20.7 mph 29.9 mph 0.00 in Snow Light Snow
9:46 PM 26.6 °F 13.4 °F 26.6 °F 100% 29.99 in 0.8 mi South 18.4 mph - 0.01 in Snow Light Snow
9:53 PM 27.0 °F 14.7 °F 26.1 °F 96% 29.99 in 0.8 mi South 16.1 mph - 0.01 in Snow Light Snow
10:21 PM 28.4 °F 16.2 °F 26.6 °F 93% 30.00 in 0.8 mi South 17.3 mph 23.0 mph 0.00 in Snow Light Snow
10:22 PM 28.4 °F 16.6 °F 26.6 °F 93% 30.00 in 1.0 mi South 16.1 mph 23.0 mph 0.00 in Snow Light Snow
10:53 PM 28.0 °F 16.5 °F 26.1 °F 92% 30.01 in 1.8 mi South 15.0 mph - 0.00 in Snow Light Snow
11:13 PM 28.4 °F 17.0 °F 24.8 °F 86% 30.01 in 2.5 mi South 15.0 mph - 0.00 in Snow Blowing Snow
11:24 PM 28.4 °F 17.5 °F 24.8 °F 86% 30.01 in 3.0 mi South 13.8 mph - 0.00 in Snow Light Snow
11:53 PM 28.0 °F 17.0 °F 26.1 °F 92% 30.02 in 3.0 mi South 13.8 mph - 0.00 in Snow Blowing Snow